Showing default

LEGION 5, 62900

Orbit data source: Space-Track

LEGION 5, 62900 is a payload satellite owned by Maxar Intel (US) in LEO that was launched on Tue, 04 Feb 2025 UTC via an FALCON 9 launch vehicle from the Air Force Eastern Test Range (AFETR). Payload-class satellites include a variety of spacecraft equipped with specific instruments for various scientific and technological missions. These include communications satellites like Starlink; space stations such as the ISS; scientific satellites like the Hubble; Earth observation satellites from companies like Planet Labs, Umbra, and HawkEye 360; GPS; miniature CubeSats for education and research; and military/defense satellites.

Loading next visibility...
Identifier
62900, 2025-025A
Orbit
LEO
Country
Flag of USUS
Related business
Manufacturer
Maxar Space Inf
Mission
Operational Commercial Imaging
Bus & Motor
LEGION, Unknown motor
Mass
~700 kg wet, 630 kg dry
Launch date (UTC)
2025-02-04 (2 years ago)
Launch vehicle
FALCON 9
Launch site
Air Force Eastern Test Range (AFETR)
Object type
Payload
Rocket body
Debris
Shape & HBR
Box + 1 Pan, 1.5 m
Radar Cross Section
9.079 m², Large (>1 m²)

Expand to show TLE details & history
Last TLE update: 6 hours ago

TLE from 6 hours ago
0 LEGION 5
1 62900U 25025A   26248.26583441  .00001673  00000-0  99117-4 0  9994
2 62900  45.0003 232.0260 0007562 232.7618 127.2571 15.16015231 86649
Epoch: 2026-09-05T06:22Z
TLE epoch observation values (Epoch: 2026-09-05T06:22:48.093Z)
Latitude
-0.00001°
Longitude
151.94782°
Altitude
521.056 km
Speed
7.603 km/s
True Right ascension
15h 28m 06s
True Declination
0° 00' 00"
Sunlit
Object was in daylight at epoch
Visualization orbit readout
Latitude
Unknown
Longitude
Unknown
Altitude
Unknown
Speed
Unknown
Apparent Right ascension
Unknown
Apparent Declination
Unknown
Sunlit
N/A
Visualization observer readout
Local Sidereal Time
04:29:30
Azimuth
Unknown
Elevation
Unknown
Doppler factor
Unknown
Orbital elements
Apogee altitude
524.715 km
Perigee altitude
514.283 km
Semi-major axis
6,897.636 km
Eccentricity
0.00076
Inclination
45.0003°
RAAN
232.026°
Arg. of periapsis
232.7618°
True anomaly
127.32603°
Mean anomaly
127.2571°
Eccentric anomaly
127.29157°
Mean motion
3.78872 °/min
Orbital period
95.02 mins
BSTAR
0.000099117
Loading maneuver chart data...
Computing Atmospheric mass density...
Loading historical data...
Loading historical data...
Loading historical data...
Loading historical data...
Loading historical data...
Loading historical data...
Loading historical data...
Other satellites on launch #25 in the year 2025 (2025-02-04 UTC)

Documentation

Showing up to 5 results
|